Home > Weather > Emmen > Past weeks

Flag for Switzerland Past Weather in Emmen, Lucerne, Switzerland — Yesterday and Last 2 Weeks

Now
64 °F

Mild.


Feels Like: 64 °F
Forecast: 55 / 81 °F
Wind: No wind

Location: Giswil

Current Time: Jul 1, 2016 at 1:08:20 AM

Latest Report: Jul 1, 2016 at 12:00 AM


Visibility: N/A

Pressure: 30.08 "Hg

Humidity: 99%

Dew Point: 64 °F

Location of EmmenLocation

Past Weather in Emmen — Graph

°F

Emmen Temperature Yesterday

Maximum temperature yesterday: 73 °F (at 2:00 PM)
Minimum temperature yesterday: 61 °F (at 7:00 AM)
Average temperature yesterday: 67 °F

High & Low Weather Summary for the Past Weeks

 TemperatureHumidityPressure
High89 °F (Jun 23, 5:00 PM)100% (Jun 18, 4:00 AM)30.30 "Hg (Jun 18, 4:00 AM)
Low48 °F (Jun 18, 6:00 AM)45% (Jun 27, 3:00 PM)29.61 "Hg (Jun 16, 4:00 AM)
Average63 °F83%30.06 "Hg
* Reported Jun 16 12:00 AM — Jul 1 12:00 AM, Emmen, Weather by CustomWeather, © 2016

Note: Actual official high and low records may vary slightly from our data, if they occured in-between our weather recording intervals... More about our weather records

Advertising

Emmen Weather History for the Previous 24 Hours

Scroll right to see more
 ConditionsComfort  
Time TempWeatherWind HumidityBarometerVisibility
12:00 AM
Fri, Jul 1
64 °FMild.No wind99%30.08 "HgN/A
11:00 PM
Thu, Jun 30
64 °FMild.1 mph99%30.09 "HgN/A
10:00 PM64 °FMild.1 mph99%30.06 "HgN/A
9:00 PM66 °FMild.No wind99%30.03 "HgN/A
8:00 PM67 °FMild.2 mph96%30.02 "HgN/A
7:00 PM67 °FMild.1 mph96%30.01 "HgN/A
6:00 PM70 °FMild.1 mph83%29.98 "HgN/A
5:00 PM69 °FMild.1 mph83%29.99 "HgN/A
4:00 PM68 °FMild.5 mph82%30.01 "HgN/A
3:00 PM73 °FMild.3 mph65%29.97 "HgN/A
2:00 PM73 °FMild.3 mph67%29.98 "HgN/A
1:00 PM71 °FMild.6 mph71%29.99 "HgN/A
12:00 PM69 °FMild.8 mph76%30.00 "HgN/A
11:00 AM71 °FMild.8 mph78%29.99 "HgN/A
10:00 AM69 °FMild.2 mph77%30.00 "HgN/A
9:00 AM65 °FMild.2 mph84%30.01 "HgN/A
8:00 AM63 °FMild.1 mph91%30.00 "HgN/A
7:00 AM61 °FCool.2 mph96%30.00 "HgN/A
6:00 AM62 °FCool.2 mph94%29.98 "HgN/A
5:00 AM64 °FMild.3 mph97%29.98 "HgN/A
4:00 AM65 °FMild.3 mph96%29.98 "HgN/A
3:00 AM65 °FMild.1 mph99%29.96 "HgN/A
2:00 AM65 °FMild.2 mph97%29.96 "HgN/A
1:00 AM65 °FMild.2 mph95%29.94 "HgN/A
Weather by CustomWeather, © 2016

See weather overviewHow to use our weather pages